Погода в Ключи

Погода в Ключи : погода сейчас, прогноз погоды и архив. Всё, что Вы хотите узнать о погоде в Ключи!

Поиск расширенной информации на нашем сайте:

Другие новости

Новости СМИ2

Главная страница сайта

Новости сайта

03.07.2017

Напоминаем, что на нашем специализированном сайте Метеоцентр.Азия вы можете получить высокодетализированные автоматические прогнозы погоды по пунктам России, СНГ и мира в авиационном формате (включающие направление и скорость ветра, видимость, явления погоды, количество и форму облачности, нижнюю и верхнюю границу облачности).

Рекомендуем: 24 И 48 форма Ян-ши тайдзицюань.

Погода в Ключи - сегодня

Время (UTC), дата Ветер
(°,м/с) 
Видим.   Явления Облачность Т
(°С)
Тd
(°С)
f(%) Тe
(°С)
Pmin
(гПа)
dP
(гПа)
Po
(мм)
O2
(г/м3)
Тmin Tmax R s Состояние
почвы
12 20.02.18 130 (ЮВ) 20000 м    8/0 верхняя 
[Ci sp]
-9.3 -14.6 65 -12  1034.5  -1.8  762  319    -8.4       
15 20.02.18 140 (ЮВ) 20000 м    ясно 
-13.8 -16.1 83 -17  1033.4  -1.4  761  324           
18 20.02.18 150 (ЮВ) 20000 м    ясно 
-14.5 -18.4 72 -17  1031.7  -1.8  759  325           
21 20.02.18 150 (ЮВ) 20000 м    ясно 
-17.4 -19.9 81 -21  1030  -1.8  758  328           
00 21.02.18 130 (ЮВ) 20000 м    5/0 верхняя 
[Ci sp]
-13.8 -17.9 71 -18  1028.2  -1.5  757  323  -17.4      12  равномерный
сухой снег
100% 
03 21.02.18 140 (ЮВ) 20000 м    10/0 верхняя 
[Ci sp]
-13.7 -17.7 72 -18  1026  -2.2  755  322           
06 21.02.18 120 (ЮВ) 20000 м    9/0 верхняя 
[Cs]
-9.8 -14.9 66 -15  1024.4  -1.3  754  317           
09 21.02.18 120 (ЮВ) 20000 м    10/0 средняя, верхняя 
[As trans|Ci fib]
-5.4 -11.9 60 -10  1021.3  -2.7  752  310           
12 21.02.18 140 (ЮВ) 20000 м    10/0 средняя 
[Ac und]
-4.9 -11.3 61 -9  1018.6  -2.6  750  309    -3.9       
15 21.02.18 150 (ЮВ) 20000 м    10/0 средняя 
[As trans]
-5.8 -11 67 -9  1016.5  -2.1  749  309           
18 21.02.18 150 (ЮВ) 20000 м    10/0 средняя 
[Ac As]
-6.1 -10.1 73 -9  1014.5  -2  747  309           
21 21.02.18 200 (Ю) 20000 м  слаб. снег  10/0 средняя 
[As op]
-3.9 -6 85 -6  1014.9  0.6  748  306           
00 22.02.18 240 (ЮЗ) 5-10{10}  20000 м  слаб. снег  10/0 средняя 
[As op]
-2.6 -4.7 85 -6  1015.6  0.7  748  305  -6.4    0.8  12  равномерный
сухой снег
100% 
09 22.02.18 250 (З) 6{11}  20000 м    ясно 
-7.8 -12.3 70 -13  1024.5  1.9  754  314           
12 22.02.18 240 (ЮЗ) 20000 м    3/0 верхняя 
[Cc]
-9.1 -12.7 75 -12  1026.3  1.8  756  316    -2.6  0.0     
15 22.02.18 200 (Ю) 20000 м    3/0 верхняя 
[Ci fib]
-12.9 -14.7 86 -15  1028.1  1.5  757  321           
18 22.02.18 190 (Ю) 20000 м    ясно 
-15.2 -17.2 85 -17  1028.4  0.1  757  324           
21 22.02.18 190 (Ю) 20000 м    ясно 
-16 -18.2 83 -20  1028  -0.5  757  325           
00 23.02.18 190 (Ю) 20000 м    5/0 верхняя 
[Ci sp]
-13.3 -15.8 81 -17  1027.1  -0.7  756  322  -16.2      12  равномерный
сухой снег
100% 
03 23.02.18 160 (Ю) 20000 м    9/0 верхняя 
[Ci sp]
-13.6 -16.2 81 -14  1027.2  0.2  756  322           
06 23.02.18 240 (ЮЗ) 20000 м    8/0 верхняя 
[Ci fib]
-8.1 -13 68 -11  1026.3  -0.5  756  315           
09 23.02.18 320 (СЗ) 20000 м    4/0 верхняя 
[Ci sp]
-8.7 -13 71 -12  1025.6  -0.8  755  315           
12 23.02.18 тихо ()   20000 м    8/0 верхняя 
[Ci]
-11.6 -15.3 74 -12  1025.3  -0.5  755  319    -7.3       
15 23.02.18 тихо ()   20000 м    9/0 средняя 
[Ac As]
-14.2 -16.2 85 -14  1024.8  -0.7  754  322           
18 23.02.18 тихо ()   20000 м    8/0 средняя 
[Ac As]
-16.2 -18.2 85 -16  1024.3  -0.6  754  324           
Время (UTC), дата Ветер
(°,м/с) 
Видим.   Явления Облачность Т
(°С)
Тd
(°С)
f(%) Тe
(°С)
Pmin
(гПа)
dP
(гПа)
Po
(мм)
O2
(г/м3)
Тmin Tmax R s Состояние
почвы

Для получения пояснительной информации подведите курсор к названию столбца.

ПОГОДА в Ключи - архив

Всё, что Вы хотите узнать о погоде в Ключи - удобно и подробно!

Выберите нужную дату (начиная с 1 января 2015* года) и нажмите кнопку "Найти".
Будут отображены архивные сводки погоды по пункту Ключи, начиная с указанной даты.


Отображать данные в формате CSV (для использования в таблицах Excel)


Внимание! Наш архив погоды предназначен исключительно для личного некоммерческого использования в познавательных целях. Если Вам необходимы официальные справки о состоянии погоды (для производственных, юридических, коммерческих и т.п. целей), обращайтесь в органы Росгидромета.

*Примечание: данная дата относится к архиву по метеостанциям СССР (Россия, СНГ, Балтия).
Архив по метеостанциям Зарубежной Европы и Азии (кроме Китая) хранится 10 дней, по другим регионам земного шара (Китай, Африка, Америка, Австралия, Океания) - 1 день.

Ключи - район местоположения метеостанции


Название, широта, долгота, высота метеостанции:
Ключи 52.2°ш. 79.1°д. 143 м над ур. моря [Российская Федерация]

Дополнительная информация

В oтличие oт бoльшинства пoгoдных сайтoв мы публикуем пoдрoбную метеoинфoрмацию в детальнoм прoфессиoнальнoм фoрмате.

Характеристики температуры и влажнoсти вoздуха измеряются на высoте 2 м в тени вдали oт зданий и деревьев.
Скoрoсть ветра измеряется на высoте 10 м (на урoвне рoста челoвека скoрoсть ветра ниже в 1.5-2 раза). Если метеoстанция нахoдится в гoрoде или в лесу, тo скoрoсть ветра занижена на 2-4 м/с пo сравнению с oткрытым местoм. Скoрoсть ветра над акватoриями крупных рек и oзёр, а также на вершинах хoлмoв на 2-5 м/с выше, чем в oбычных услoвиях.
Атмoсфернoе давление в разных тoчках местнoсти мoжет значительнo oтличаться oт давления на метеoстанции, в зависимoсти oт услoвий рельефа (при пoдъёме на 10 м давление пoнижается примернo на 1 мм рт.ст.).